Greenville/Spartanburg, SC

11:59 AM EDT on March 23, 2017 (GMT -0400)
Greenville-Spartanburg International

Weather History for KGSP - September, 2013

Change the Weather History Date:

Tuesday, September 24, 2013

  Actual Average Record
Temperature  
Mean Temperature 67 °F 69 °F  
Max Temperature 75 °F 80 °F 96 °F (1931)
Min Temperature 59 °F 59 °F 41 °F (1896)
Degree Days  
Heating Degree Days 0 1  
Month to date heating degree days 0 7  
Since 1 July heating degree days 0 7  
Cooling Degree Days 2 5  
Month to date cooling degree days 216 201  
Year to date cooling degree days 1465 1636  
Growing Degree Days 17 (Base 50)    
Moisture  
Dew Point 60 °F    
Average Humidity 79    
Maximum Humidity 97    
Minimum Humidity 61    
Precipitation  
Precipitation T in 0.11 in 2.50 in (1889)
Month to date precipitation 1.38 2.74  
Year to date precipitation 55.73 35.25  
Snow  
Snow 0.00 in 0.00 in 0.00 in ()
Month to date snowfall 0.0 0.0  
Since 1 July snowfall 0.0 0.0  
Since 1 September snowfall 0.0 0.0  
Snow Depth 0.00 in    
Sea Level Pressure  
Sea Level Pressure 30.00 in    
Wind  
Wind Speed 2 mph (SSE)    
Max Wind Speed 9 mph    
Max Gust Speed 12 mph    
Visibility 9 miles    
Events Rain    
T = Trace of Precipitation, MM = Missing Value Source: NWS Daily Summary

Daily Weather History Graph

Daily Weather History Graph

Search for Another Location

Airport or City:

Trip Planner

Search our weather history database for the weather conditions in past years. The results will help you decide how hot, cold, wet, or windy it might be!

Date:

Astronomy

Sep. 24, 2013 Rise Set
Actual Time 7:18 AM EDT 7:22 PM EDT
Civil Twilight 6:53 AM EDT 7:47 PM EDT
Nautical Twilight 6:23 AM EDT 8:17 PM EDT
Astronomical Twilight 5:54 AM EDT 8:46 PM EDT
Moon 10:51 PM EDT (9/24) 12:20 PM EDT (9/24)
Length of Visible Light 12h 54m
Length of Day
12h 03m
Waning Gibbous, 73% of the Moon is Illuminated
Sep 24
Waning Gibbous
Sep 26
Last Quarter
Oct 4
New
Oct 11
First Quarter
Oct 18
Full

Hourly Weather History & Observations

Time (EDT) Temp. Dew Point Humidity Pressure Visibility Wind Dir Wind Speed Gust Speed Precip Events Conditions
12:53 AM 63.0 °F 59.0 °F 87% 30.04 in 10.0 mi Calm Calm - N/A   Overcast
1:53 AM 62.1 °F 57.9 °F 86% 30.04 in 10.0 mi Calm Calm - N/A   Scattered Clouds
2:53 AM 61.0 °F 59.0 °F 93% 30.04 in 9.0 mi Calm Calm - N/A   Overcast
3:53 AM 60.1 °F 57.9 °F 93% 30.03 in 7.0 mi Calm Calm - N/A   Scattered Clouds
4:53 AM 60.1 °F 57.9 °F 93% 30.03 in 6.0 mi Calm Calm - N/A   Clear
5:53 AM 60.1 °F 57.9 °F 93% 30.04 in 6.0 mi Calm Calm - N/A   Clear
6:53 AM 60.1 °F 57.9 °F 93% 30.05 in 7.0 mi Calm Calm - N/A   Overcast
7:53 AM 62.1 °F 59.0 °F 90% 30.06 in 8.0 mi Calm Calm - N/A   Overcast
8:53 AM 64.0 °F 60.1 °F 87% 30.06 in 7.0 mi ENE 3.5 mph - N/A   Overcast
9:53 AM 66.0 °F 59.0 °F 78% 30.06 in 9.0 mi NE 3.5 mph - N/A   Overcast
10:53 AM 68.0 °F 59.0 °F 73% 30.06 in 10.0 mi South 4.6 mph - N/A   Overcast
11:53 AM 71.1 °F 59.0 °F 66% 30.04 in 10.0 mi Calm Calm - N/A   Overcast
12:53 PM 73.0 °F 59.0 °F 61% 30.02 in 9.0 mi West 3.5 mph - N/A   Mostly Cloudy
1:53 PM 73.0 °F 59.0 °F 61% 30.00 in 10.0 mi Variable 3.5 mph - N/A   Overcast
2:53 PM 73.0 °F 60.1 °F 64% 29.98 in 9.0 mi South 5.8 mph - N/A   Overcast
3:53 PM 73.0 °F 60.1 °F 64% 29.96 in 10.0 mi SSE 5.8 mph - N/A   Overcast
4:53 PM 73.0 °F 60.1 °F 64% 29.94 in 10.0 mi SE 5.8 mph - N/A   Clear
5:53 PM 72.0 °F 60.1 °F 66% 29.94 in 10.0 mi SSE 4.6 mph - N/A   Clear
6:53 PM 68.0 °F 60.1 °F 76% 29.94 in 10.0 mi South 3.5 mph - N/A   Mostly Cloudy
7:53 PM 68.0 °F 61.0 °F 78% 29.93 in 10.0 mi SSE 4.6 mph - N/A   Overcast
8:53 PM 66.9 °F 62.1 °F 84% 29.94 in 8.0 mi Calm Calm - N/A   Mostly Cloudy
9:53 PM 66.0 °F 62.1 °F 87% 29.94 in 8.0 mi WSW 3.5 mph - N/A   Mostly Cloudy
10:53 PM 66.9 °F 62.1 °F 84% 29.94 in 10.0 mi Calm Calm - N/A   Overcast
11:53 PM 66.0 °F 63.0 °F 90% 29.93 in 8.0 mi West 3.5 mph - 0.00 in Rain Light Rain